This is the latest recevied weather packets stored in our database for station/object SP1BMW-13. If no packets are shown the sender has not sent any weather packets the latest 10 day(s).
| Time | Temp. | Humidity | Pressure | Rain* | Wind** | Luminosity | Snow |
|---|---|---|---|---|---|---|---|
| 1788072636 | 20.56° C | 67% | 1008.1 hPa | 0 mm | 0.89 m/s, 154° | 102 W/m² | - |
| 1788072576 | 20.56° C | 69% | 1008.2 hPa | 0 mm | 0.45 m/s, 158° | 106 W/m² | - |
| 1788072517 | 20.56° C | 67% | 1008.1 hPa | 0 mm | 1.34 m/s, 203° | 113 W/m² | - |
| 1788072462 | 20.56° C | 68% | 1008 hPa | 0 mm | 0 m/s | 121 W/m² | - |
| 1788072399 | 20.56° C | 68% | 1007.9 hPa | 0 mm | 0.89 m/s, 332° | 125 W/m² | - |
| 1788072340 | 20.56° C | 67% | 1007.9 hPa | 0 mm | 0 m/s | 126 W/m² | - |
| 1788072276 | 20.56° C | 69% | 1008.1 hPa | 0 mm | 0 m/s | 122 W/m² | - |
| 1788072217 | 20.56° C | 68% | 1008 hPa | 0 mm | 0.89 m/s, 93° | 114 W/m² | - |
| 1788072156 | 20.56° C | 68% | 1008 hPa | 0 mm | 0.89 m/s, 19° | 109 W/m² | - |
| 1788072097 | 20.56° C | 67% | 1008.1 hPa | 0 mm | 0.45 m/s, 170° | 106 W/m² | - |
| 1788072036 | 20.56° C | 68% | 1008.1 hPa | 0 mm | 0.45 m/s, 323° | 109 W/m² | - |
| 1788071976 | 20.56° C | 68% | 1008.1 hPa | 0 mm | 0.89 m/s, 343° | 116 W/m² | - |
| 1788071917 | 20.56° C | 68% | 1008.2 hPa | 0 mm | 0.45 m/s, 348° | 117 W/m² | - |
| 1788071857 | 20.56° C | 68% | 1008.2 hPa | 0 mm | 0 m/s | 115 W/m² | - |
| 1788071796 | 20.56° C | 69% | 1008.1 hPa | 0 mm | 0.45 m/s, 136° | 111 W/m² | - |
| 1788071736 | 20.56° C | 69% | 1008.1 hPa | 0 mm | 0.45 m/s, 37° | 111 W/m² | - |
| 1788071677 | 20.56° C | 68% | 1008.2 hPa | 0 mm | 1.79 m/s, 180° | 113 W/m² | - |
| 1788071616 | 20.56° C | 69% | 1008.1 hPa | 0 mm | 0.45 m/s, 280° | 116 W/m² | - |
| 1788071557 | 20.56° C | 69% | 1008.1 hPa | 0 mm | 0.45 m/s, 38° | 117 W/m² | - |
| 1788071496 | 20.56° C | 69% | 1008.2 hPa | 0 mm | 0.89 m/s, 13° | 118 W/m² | - |
| 1788071436 | 20.56° C | 69% | 1008 hPa | 0 mm | 0 m/s | 119 W/m² | - |
| 1788071376 | 20.56° C | 69% | 1008.1 hPa | 0 mm | 0.45 m/s, 316° | 119 W/m² | - |
| 1788071316 | 20.56° C | 69% | 1008 hPa | 0 mm | 0.45 m/s, 327° | 115 W/m² | - |
| 1788071256 | 20.56° C | 70% | 1008.1 hPa | 0 mm | 0 m/s | 114 W/m² | - |
| 1788071199 | 20.56° C | 69% | 1008.1 hPa | 0 mm | 0.45 m/s, 6° | 115 W/m² | - |
* Rain latest hour (hover to see other rain measurements)
** Current wind speed in m/s (hover to see current wind gust speed)